Regional Weather Roundup
Issued by NWS

Home | Current Version | Previous Version | Text Only | Print | Product List | Glossary On
Versions: 1 2 3 4 5 6 7 8 9 10 11 12 13 14 15 16 17 18 19 20 21 22 23 24 25 26 27 28 29 30 31 32 33 34 35 36 37 38 39 40 41 42 43 44 45 46 47 48 49 50
000
ASUS45 KBOU 031607
RWRCO

WEATHER ROUNDUP FOR COLORADO
NATIONAL WEATHER SERVICE DENVER/BOULDER CO
900 AM MST SAT DEC 03 2016

NOTE: "FAIR" INDICATES FEW OR NO CLOUDS BELOW 12000 FEET WITH NO
SIGNIFICANT WEATHER AND/OR OBSTRUCTIONS TO VISIBILITY.

COZ001>005-013-030-031-031700-
...NORTHWEST COLORADO...

CITY           SKY/WX    TMP DP  RH WIND       PRES   REMARKS
CRAIG          CLOUDY    15  10  80 SW3       30.20R
HAYDEN         FAIR      16   7  67 SE7       30.17R WCI   6
MEEKER         PTSUNNY   12   7  80 NE3       30.20R
MOUNT WERNER   NOT AVBL
STEAMBOAT SPGS PTSUNNY   15   9  76 E3        30.16S
WALDEN           N/A     18   5  57 S15       30.06S WCI   3
$$

COZ006>008-011-031700-
...WEST CENTRAL VALLEYS...

CITY           SKY/WX    TMP DP  RH WIND       PRES   REMARKS
GRAND JUNCTION FAIR      27  21  78 E3        30.22S
MONTROSE       CLOUDY    27  21  78 S7        30.22S WCI  19
EAGLE          MOSUNNY   18  14  86 CALM      30.21R
RIFLE          PTSUNNY   23  15  71 CALM      30.23S
DELTA          NOT AVBL
NUCLA          FAIR      23  18  80 NE5       30.23R WCI  17
$$

COZ017>023-064>068-031700-
...SOUTHWEST COLORADO...

CITY           SKY/WX    TMP DP  RH WIND       PRES   REMARKS
DURANGO        FAIR      25  19  78 CALM      30.13R
CORTEZ         FAIR      24  21  88 MISG      30.16R
PAGOSA SPRINGS FAIR     N/A N/A N/A CALM      30.12S
TELLURIDE      FAIR      16  13  87 E5        30.12S WCI   9
WOLF CREEK PAS SNOW      12  12 100 S10       30.10F VSB 1/4 WCI  -1
$$

COZ009-010-012-014-032>034-037-058>063-031700-
...CENTRAL COLORADO...

CITY           SKY/WX    TMP DP  RH WIND       PRES   REMARKS
ASPEN          FAIR      15  12  88 CALM      30.14R
BUENA VISTA    FAIR      13   8  80 CALM      30.03F
COPPER MTN     NOT AVBL
BERTHOUD PASS  PTSUNNY   -2 -15  55 MISG      29.92S
COTTONWOOD PAS FAIR      25  10  54 N3        29.98S
GUNNISON       FLURRIES  19  15  84 W7        30.14F WCI  10
KREMMLING      FLURRIES  16  12  86 CALM      30.17S
LEADVILLE      FAIR      15   6  67 N7        30.04R WCI   5
MONARCH PASS   CLOUDY     7   3  85 W53G59    30.02F WCI -22
SALIDA         FAIR      18  11  75 N7        30.11F WCI   8
SUNLIGHT       FAIR     N/A N/A N/A CALM      30.11S
WILKERSON PASS FAIR     N/A N/A N/A W9G21     29.95S
$$

COZ069>075-031700-
...SAN LUIS VALLEY/SANGRE DE CRISTO MOUNTAINS...

CITY           SKY/WX    TMP DP  RH WIND       PRES   REMARKS
ALAMOSA        CLOUDY    22  19  89 SW5       30.12S WCI  16
LA VETA PASS   LGT SNOW  18  14  86 NE20G32   30.01S VSB 3/4 WCI   1
SAGUACHE       FAIR      21  12  68 W6        30.12R WCI  14
$$

COZ035-036-038>040-031700-
...NORTHERN COLORADO FRONT RANGE...

CITY           SKY/WX    TMP DP  RH WIND       PRES   REMARKS
DENVER INTL AP FAIR      26  21  81 SW5       30.00S HAZE    WCI  20
DMNS CITY PARK   N/A     28  16  59 NW1G7     30.01R
AURORA         MOSUNNY   25  19  79 W3        30.00S
FRONT RANGE AP NOT AVBL
ERIE MUNI ARPT FAIR      26  22  87 CALM      30.02S
BOULDER MUN AP FAIR      27  21  80 CALM      30.01R
CENTENNIAL     FAIR      27  18  69 SW3       29.98F
BROOMFIELD     PTSUNNY   25  23  93 CALM      30.00S FOG
FORT COLLINS   FAIR      21  18  86 CALM      30.02F
LONGMONT       PTSUNNY   27  21  78 CALM      30.04F
$$

COZ041-046-047-076>085-087-088-031700-
...PIKES PEAK/PALMER DIVIDE AND SOUTHERN FOOTHILLS...

CITY           SKY/WX    TMP DP  RH WIND       PRES   REMARKS
COLO. SPRINGS  FAIR      23  19  85 E3        30.00F FOG
A. F. ACADEMY  MOSUNNY   20  18  91 CALM      29.98F
SCHRIEVER AFB  NOT AVBL
ELLICOTT       FAIR     N/A N/A N/A S6        29.99F
FALCON         FAIR      24  21  89 CALM      29.99F
FORT CARSON    FAIR      24  19  80 N10       29.99F WCI  14
LIMON          FAIR      28  22  78 S12       30.03F WCI  18
MONUMENT HILL  FAIR      30  18  59 W9        29.97S WCI  22
TRINIDAD       FAIR      28  20  71 W8        30.05S WCI  20
$$

COZ042>045-048>051-090-091-031700-
...NORTHEAST COLORADO...

CITY           SKY/WX    TMP DP  RH WIND       PRES   REMARKS
GREELEY ARPT   FAIR      22  15  75 CALM      30.04F
AKRON          FAIR      30  20  66 SW10      30.02F WCI  21
BURLINGTON     FAIR      33  23  66 SW8       30.08F WCI  26
WRAY           NOT AVBL
STERLING       FAIR      25  21  86 S7        30.04S WCI  17
HOLYOKE        FAIR      34  27  75 SW13      30.07F WCI  25
FORT MORGAN    FAIR      20  17  89 W12       30.03F WCI   8
$$

COZ086-089-092>099-031700-
...SOUTHEAST COLORADO...

CITY           SKY/WX    TMP DP  RH WIND       PRES   REMARKS
PUEBLO         FAIR      28  20  71 CALM      30.04F
LA JUNTA       FAIR      30  23  75 S6        30.08F WCI  24
LAMAR          MIX PCPN  36  25  64 S6        30.09S
SPRINGFIELD      N/A     30  28  92 S6        30.10S WCI  24
$$



USA.gov is the U.S. government's official web portal to all federal, state and local government web resources and services.